Location: Apeadero de Los Molinos-Guadarrama
(40.7091°N, 4.0689°W)
Time: 11:27:31
(UTC+00:00)

Cosmos 1689 Rocket - Pass Details

Date: 14 May 2021
Orbit: 344 x 354 km, 97.5° (Epoch: 18 June)

Event Time Altitude Azimuth Distance (km) Brightness Sun altitude
Rises 19:53:47 0° 2° (N) 2,153 6.3 -5.5°
Reaches altitude 10° 19:55:49 10° 351° (N) 1,307 5.4 -5.8°
Maximum altitude 19:58:18 31° 287° (WNW) 644 4.1 -6.2°
Drops below altitude 10° 20:00:48 10° 222° (SW) 1,298 4.9 -6.6°
Sets 20:02:48 0° 212° (SSW) 2,135 5.8 -7.0°
